CST,Max TemperatureF,Mean TemperatureF,Min TemperatureF,Max Dew PointF,MeanDew PointF,Min DewpointF,Max Humidity, Mean Humidity, Min Humidity, Max Sea Level PressureIn, Mean Sea Level PressureIn, Min Sea Level PressureIn, Max VisibilityMiles, Mean VisibilityMiles, Min VisibilityMiles, Max Wind SpeedMPH, Mean Wind SpeedMPH, Max Gust SpeedMPH,PrecipitationIn, CloudCover, Events, WindDirDegrees
2013-11-1,61,53,44,44,41,38,93,70,47,29.91,29.77,29.64,10,10,10,22,11,26,T,1,,270
2013-11-2,54,45,35,40,37,33,89,70,50,30.21,30.08,29.90,10,10,10,18,10,24,0.00,5,,298
2013-11-3,59,46,32,39,35,31,96,68,40,30.27,30.17,30.06,10,9,4,22,12,28,0.00,0,,158
2013-11-4,63,56,48,47,43,37,80,66,52,30.18,30.09,30.05,10,10,10,22,12,28,0.03,6,Rain,166
2013-11-5,57,55,52,55,53,47,100,86,72,30.19,30.08,29.92,10,7,3,21,13,24,0.44,8,Rain,155
2013-11-6,60,48,35,58,42,32,96,83,70,30.33,30.09,29.88,10,9,2,25,12,35,0.41,7,Rain,282
2013-11-7,56,43,30,37,32,27,96,70,43,30.40,30.35,30.31,10,10,8,20,8,25,0.00,0,,276
2013-11-8,62,46,29,36,32,26,85,61,36,30.36,30.19,30.01,10,10,10,23,12,30,0.00,0,,169
2013-11-9,66,54,42,40,36,33,76,54,31,30.28,30.14,30.03,10,10,10,21,10,26,0.00,0,,257
2013-11-10,58,48,37,34,29,22,76,52,28,30.44,30.35,30.26,10,10,10,13,7,17,0.00,0,,81
2013-11-11,63,46,29,49,36,22,85,69,52,30.57,30.29,30.15,10,9,2,29,13,37,0.03,8,Rain,323
2013-11-12,36,28,20,21,14,10,77,56,35,30.84,30.75,30.60,10,10,10,23,9,28,0.00,2,,337
2013-11-13,47,32,16,19,14,10,88,56,23,30.71,30.51,30.27,10,10,10,17,9,22,0.00,0,,193
2013-11-14,57,43,29,23,19,14,63,41,19,30.26,30.13,30.03,10,10,10,23,12,29,0.00,0,,193
2013-11-15,58,50,41,46,37,24,82,62,41,30.03,29.95,29.85,10,10,10,23,12,30,T,6,Rain,173
2013-11-16,66,59,52,59,53,47,90,79,68,29.84,29.68,29.54,10,10,5,31,19,41,0.07,4,Rain-Thunderstorm,176
2013-11-17,74,60,45,62,44,19,84,51,18,30.03,29.63,29.39,10,10,10,40,18,54,T,1,Rain-Thunderstorm,251
2013-11-18,54,45,35,37,31,27,92,65,38,30.30,30.22,30.04,10,10,10,20,7,27,0.00,0,,279
2013-11-19,54,43,32,29,27,24,75,55,35,30.33,30.24,30.13,10,10,10,16,9,21,0.00,2,,122
2013-11-20,45,42,38,39,33,23,92,69,45,30.12,30.05,29.98,10,10,4,20,11,26,0.26,8,Rain-Snow,118
2013-11-21,51,47,42,49,44,38,100,82,63,30.28,30.13,30.04,10,6,2,17,7,23,0.23,8,Rain,82
2013-11-22,42,36,29,38,29,25,100,89,78,30.58,30.50,30.29,10,9,3,23,13,28,T,7,Rain-Snow,339
2013-11-23,31,23,14,24,13,7,85,62,39,30.79,30.70,30.58,10,10,10,21,12,26,0.00,0,,349
2013-11-24,29,20,11,11,8,4,84,59,34,30.78,30.64,30.41,10,10,10,16,6,18,0.00,1,,101
2013-11-25,38,33,27,24,16,10,75,55,35,30.38,30.26,30.19,10,10,10,15,8,17,0.00,8,,203
2013-11-26,39,30,21,25,18,10,88,68,47,30.34,30.22,30.14,10,10,10,22,13,27,0.00,2,,320
2013-11-27,30,23,15,12,9,7,73,56,39,30.44,30.35,30.26,10,10,10,20,8,24,0.00,0,,285
2013-11-28,45,33,20,22,18,12,75,58,40,30.52,30.34,30.22,10,10,10,20,9,24,0.00,0,,281
2013-11-29,48,35,22,26,22,16,74,57,39,30.57,30.46,30.34,10,10,10,13,8,17,0.00,0,,116
2013-11-30,57,45,32,38,33,27,79,63,47,30.32,30.19,30.09,10,10,8,16,9,21,0.00,0,,213